[[{"header":{"parameterUnit":"m.s-1","parameterCategory":1,"la1":30.2991,"la2":30.254,"lo1":-89.0895,"lo2":-89.0444,"dy":0.0017,"dx":0.0017,"nx":28,"ny":28,"refTime":"2025-06-06T09:00:00:Z","depth":0,"parameterNumber":2,"parameterNumberName":"U-component_of_WINDS"},"data":[0,0,0,0,0,0,0,0,0,0,0,0,0,0,0,0,0,0,0,0,0,0,0,0,0,0,0,0,0,0,0,0,0,0,0,0,0,0,0,0,0,0,0,0,0,0,0,0,0,0,0,0,0,0,0,0,0,0,5.4183,5.4185,0,5.4345,5.4347,5.4349,5.429,5.4287,5.4283,5.428,5.4447,5.4455,5.4463,0,0,0,0,0,0,0,0,0,0,0,0,0,5.3822,5.3829,5.4183,5.4185,5.4187,5.4345,5.4347,5.4349,5.4291,5.4286,5.4282,5.4278,5.4445,5.4454,5.4463,0,0,0,0,0,0,0,0,0,0,0,0,0,5.3981,5.3831,5.4183,5.4177,5.4178,5.4344,5.4347,5.435,5.4292,5.4286,5.4281,5.4276,5.4442,5.4453,5.4465,5.4647,0,0,5.4501,5.4506,0,0,0,0,0,0,0,0,5.3972,5.3994,5.4176,5.4178,5.4179,5.4292,5.4281,5.445,5.4293,5.4249,5.4279,5.4273,5.44,5.4415,5.4458,5.4655,5.4662,5.4502,5.4509,5.4514,5.4517,0,0,0,0,0,0,0,5.3961,5.3987,5.4247,5.4178,5.418,5.4166,5.4182,5.4313,5.4353,5.4252,5.4248,5.4268,5.44,5.4446,5.4461,5.4665,5.4502,5.4512,5.4519,5.4524,5.5015,5.5021,0,0,0,0,0,0,5.3949,5.3978,5.4242,5.4252,5.406,5.4177,5.4195,5.4261,5.4352,5.436,5.4273,5.4265,5.4429,5.4447,5.4467,5.4682,5.4514,5.4525,5.4532,5.5009,5.5016,5.5023,0,0,0,0,0,0,5.3941,5.3973,5.4235,5.4114,5.4146,5.4189,5.4263,5.4267,5.4313,5.4367,5.4374,5.4313,5.4425,5.445,5.4601,5.4687,5.453,5.4541,5.5002,5.5011,5.502,5.5117,0,0,0,0,0,0,5.3931,5.3971,5.4041,5.4116,5.4153,5.4368,5.4269,5.4274,5.4334,5.4325,5.4406,5.4415,5.4423,5.4584,5.4613,5.4701,5.455,5.4995,5.5006,5.5017,5.5107,5.5129,5.5147,0,0,0,0,0,5.3919,5.4063,5.4045,5.4077,5.4241,5.4373,5.4394,5.44,5.4341,5.4411,5.4445,5.4412,5.4674,5.46,5.4632,5.4725,5.4989,5.5003,5.5016,5.5098,5.5124,5.5147,0,0,0,0,0,0,5.3998,5.4073,5.4053,5.4227,5.4294,5.4363,5.4452,5.4429,5.4515,5.4504,5.4508,5.4527,5.4682,5.4719,5.4636,5.4904,5.4823,5.4843,5.4873,5.4899,5.4919,5.4906,5.456,0,0,0,0,0,5.4036,5.4137,5.4197,5.4344,5.4378,5.441,5.4467,5.4466,5.4536,5.4564,5.4609,5.4679,5.4776,5.484,5.4934,5.5113,5.5127,5.5192,5.5212,5.5229,5.5245,5.5339,5.5367,5.5067,5.5067,5.5067,0,0,5.4115,5.4168,5.4232,5.4361,5.4413,5.4516,5.4434,5.4548,5.4623,5.4582,5.4726,5.4762,5.4839,5.5004,5.5079,5.504,5.5332,5.5246,5.5258,5.5266,5.5355,5.5384,5.5409,5.5076,5.5075,5.5073,0,0,5.4311,5.4363,5.4488,5.4542,5.462,5.464,5.467,5.4743,5.4764,5.4909,5.4878,5.4969,5.5138,5.5193,5.5243,5.5457,5.5428,5.5488,5.5593,5.5684,5.5707,5.5728,5.5801,5.5827,5.5505,5.5505,5.5505,0,5.4399,5.4553,5.4557,5.4671,5.4728,5.4694,5.482,5.4872,5.4977,5.5017,5.4971,5.518,5.523,5.5405,5.5457,5.55,5.5533,5.5477,5.5704,5.5725,5.5744,5.5813,5.5841,5.5512,5.5511,5.551,5.551,0,5.4655,5.4762,5.4855,5.4955,5.5022,5.5143,5.5164,5.5231,5.5224,5.5248,5.5394,5.5453,5.5555,5.5597,5.5593,5.5771,5.5744,5.5702,5.5619,5.5779,5.5843,5.587,5.5521,5.5518,5.5516,5.5515,0,0,5.4905,5.5004,5.5038,5.5081,5.5165,5.5248,5.5366,5.5465,5.552,5.5595,5.5692,5.5834,5.5794,5.5851,5.5852,5.5933,5.6093,5.588,5.5882,5.5914,5.6289,5.6317,5.6348,5.6075,5.6081,5.6085,5.6281,0,5.5104,5.531,5.5316,5.5504,5.56,5.5569,5.5671,5.5733,5.5758,5.5843,5.5872,5.597,5.5913,5.5946,5.6025,5.6057,5.6167,5.6043,5.6163,5.6168,5.6141,5.6382,5.6414,5.6596,5.6306,5.6311,5.6314,0,5.5364,5.5443,5.5641,5.5706,5.5747,5.5839,5.5928,5.6011,5.608,5.6092,5.6155,5.6143,5.6261,5.6177,5.634,5.6255,5.6304,5.6328,5.6335,5.6344,5.6248,5.6394,5.6655,5.668,5.6355,5.6351,5.6349,0,5.5521,5.5678,5.5815,5.5854,5.5936,5.6,5.6037,5.61,5.6158,5.6237,5.6273,5.6366,5.6415,5.6486,5.6499,5.6437,5.666,5.6578,5.6671,5.6671,5.6717,5.6714,5.6986,5.6756,5.6756,5.6755,5.6754,0,5.5741,5.5862,5.5886,5.597,5.6104,5.6109,5.6241,5.6273,5.6329,5.6418,5.6398,5.6481,5.6494,5.6581,5.6592,5.6722,5.6746,5.6757,5.6758,5.6757,5.6755,5.6787,5.6774,5.6762,5.6761,5.6759,5.6758,0,5.5938,5.596,5.6106,5.6171,5.619,5.6285,5.6339,5.6419,5.6441,5.6554,5.658,5.6616,5.6716,5.6736,5.6856,5.6863,5.7016,5.7007,5.6993,5.699,5.7081,5.707,5.738,5.7419,5.7168,5.717,5.7172,0,5.6075,5.6167,5.624,5.6297,5.6337,5.643,5.6488,5.6497,5.6558,5.6641,5.671,5.6808,5.6886,5.7048,5.7084,5.7174,5.7164,5.7266,5.7177,5.7172,5.716,5.7153,5.7161,5.7282,5.7285,5.7287,5.7289,0,5.6314,5.6319,5.6404,5.6491,5.6561,5.663,5.6696,5.6745,5.6762,5.6832,5.6933,5.6993,5.7114,5.721,5.73,5.7337,5.7315,5.7317,5.7343,5.7341,5.7327,5.7331,5.7035,5.7309,5.7307,5.7306,5.7305,5.7304,5.6483,5.6561,5.6623,5.6717,5.6767,5.6829,5.6905,5.6936,5.7021,5.7118,5.7119,5.7228,5.7292,5.741,5.7453,5.7538,5.7506,5.7544,5.7553,5.7562,5.7568,5.7316,5.7556,5.7555,5.7554,5.7554,5.7554,0,5.6717,5.6755,5.6841,5.6933,5.7006,5.6979,5.705,5.7112,5.7209,5.727,5.7347,5.7461,5.7554,5.7597,5.7688,5.7747,5.7739,5.7771,5.7764,5.7773,5.7594,5.756,5.7775,5.7775,5.7775,5.7775,5.7775,5.7775,5.6847,5.6976,5.6989,5.7142,5.718,5.7286,5.7329,5.7384,5.7432,5.7561,5.7637,5.7664,5.7717,5.7811,5.7894,5.7904,5.7937,5.7972,5.7977,5.7808,5.7786,5.7764,5.7733,5.798,5.798,5.8148,5.815,5.8151]},{"header":{"parameterUnit":"m.s-1","parameterCategory":1,"la1":30.2991,"la2":30.254,"lo1":-89.0895,"lo2":-89.0444,"dy":0.0017,"dx":0.0017,"nx":28,"ny":28,"refTime":"2025-06-06T09:00:00:Z","depth":0,"parameterNumber":3,"parameterNumberName":"V-component_of_WINDS"},"data":[0,0,0,0,0,0,0,0,0,0,0,0,0,0,0,0,0,0,0,0,0,0,0,0,0,0,0,0,0,0,0,0,0,0,0,0,0,0,0,0,0,0,0,0,0,0,0,0,0,0,0,0,0,0,0,0,0,0,2.7562,2.7563,0,2.7656,2.7657,2.7658,2.7613,2.7611,2.7608,2.7606,2.7703,2.7707,2.7712,0,0,0,0,0,0,0,0,0,0,0,0,0,2.7344,2.7348,2.7562,2.7563,2.7564,2.7656,2.7657,2.7658,2.7613,2.761,2.7608,2.7605,2.7701,2.7707,2.7712,0,0,0,0,0,0,0,0,0,0,0,0,0,2.7438,2.7349,2.7562,2.7553,2.7553,2.7655,2.7657,2.7659,2.7614,2.761,2.7607,2.7603,2.7699,2.7706,2.7713,2.783,0,0,2.7735,2.7738,0,0,0,0,0,0,0,0,2.7433,2.7446,2.7553,2.7554,2.7554,2.7619,2.7615,2.7716,2.7615,2.7591,2.7606,2.7602,2.7678,2.7686,2.7712,2.7834,2.7839,2.7736,2.774,2.7743,2.7746,0,0,0,0,0,0,0,2.7426,2.7442,2.7599,2.7555,2.7555,2.7544,2.7554,2.7634,2.7653,2.7593,2.759,2.7601,2.7677,2.7705,2.7714,2.784,2.7736,2.7742,2.7747,2.7749,2.8061,2.8065,0,0,0,0,0,0,2.742,2.7437,2.7596,2.7602,2.7483,2.7551,2.7562,2.7602,2.7652,2.7657,2.7604,2.7599,2.7695,2.7706,2.7717,2.7856,2.7743,2.775,2.7754,2.8057,2.8062,2.8067,0,0,0,0,0,0,2.7416,2.7435,2.7592,2.7519,2.7538,2.7559,2.7604,2.7606,2.7633,2.7661,2.7664,2.7629,2.7692,2.7707,2.7802,2.7859,2.7753,2.776,2.8053,2.8059,2.8064,2.8136,0,0,0,0,0,0,2.741,2.7433,2.7478,2.752,2.7542,2.7676,2.7608,2.761,2.7646,2.764,2.7685,2.769,2.7691,2.7791,2.7809,2.7867,2.7766,2.8048,2.8056,2.8063,2.8129,2.8144,2.8157,0,0,0,0,0,2.7402,2.7495,2.7481,2.75,2.7598,2.7679,2.7692,2.7691,2.7651,2.7696,2.7713,2.7688,2.785,2.7801,2.7821,2.7882,2.8044,2.8053,2.8062,2.8123,2.8141,2.8156,0,0,0,0,0,0,2.746,2.7501,2.7485,2.7595,2.7634,2.7672,2.7728,2.7711,2.7762,2.7754,2.7751,2.7762,2.786,2.788,2.7826,2.7997,2.7941,2.7954,2.798,2.7998,2.8011,2.8005,2.7772,0,0,0,0,0,2.7486,2.7548,2.758,2.7674,2.7694,2.7708,2.7743,2.7739,2.7779,2.7796,2.7821,2.7861,2.7921,2.796,2.8017,2.8131,2.814,2.8183,2.8197,2.8208,2.822,2.8281,2.83,2.8096,2.8096,2.8095,0,0,2.754,2.7569,2.7609,2.7686,2.7716,2.778,2.7722,2.7793,2.7841,2.7807,2.7898,2.7917,2.7962,2.8067,2.8114,2.8087,2.8278,2.8219,2.8228,2.8234,2.8292,2.8311,2.8328,2.8102,2.8101,2.81,0,0,2.767,2.7699,2.778,2.7811,2.7856,2.7865,2.7884,2.7924,2.7936,2.8027,2.8002,2.8058,2.8162,2.8194,2.8224,2.8366,2.8344,2.8384,2.8457,2.8517,2.8533,2.8547,2.8597,2.8615,2.8396,2.8396,2.8396,0,2.7731,2.7828,2.7824,2.7896,2.7931,2.7902,2.7983,2.8013,2.8075,2.8099,2.8068,2.8196,2.8224,2.8336,2.837,2.8395,2.8417,2.8379,2.8531,2.8545,2.8558,2.8606,2.8625,2.84,2.84,2.8399,2.8399,0,2.79,2.7967,2.8026,2.8086,2.8127,2.8204,2.8211,2.8253,2.8245,2.8256,2.8349,2.8381,2.8444,2.8469,2.8463,2.858,2.8561,2.8531,2.8474,2.8582,2.8627,2.8645,2.8407,2.8405,2.8404,2.8403,0,0,2.8071,2.8127,2.8149,2.8175,2.8223,2.8274,2.8349,2.8409,2.8445,2.8489,2.8551,2.8638,2.8609,2.8643,2.864,2.8692,2.8801,2.8654,2.8655,2.868,2.8931,2.8955,2.8976,2.8786,2.879,2.8793,2.8928,0,2.8205,2.8336,2.8334,2.8456,2.8517,2.849,2.8555,2.8591,2.8603,2.8657,2.867,2.8732,2.8689,2.871,2.876,2.8777,2.8851,2.8767,2.8844,2.8847,2.8834,2.8999,2.9024,2.915,2.8945,2.8948,2.895,0,2.8379,2.8427,2.8555,2.8592,2.8618,2.8676,2.8731,2.8783,2.8822,2.8828,2.8865,2.8853,2.8928,2.8869,2.8973,2.8915,2.8947,2.8959,2.8964,2.8972,2.8906,2.9011,2.919,2.9209,2.8978,2.8975,2.8973,0,2.8491,2.8588,2.8676,2.87,2.8746,2.8787,2.8808,2.8844,2.888,2.8928,2.8951,2.9007,2.9038,2.9081,2.9083,2.904,2.9188,2.9129,2.9194,2.9194,2.9227,2.9225,2.9414,2.9247,2.9247,2.9246,2.9246,0,2.8641,2.872,2.8727,2.8781,2.8869,2.8865,2.8952,2.8969,2.9001,2.9058,2.9038,2.9092,2.9092,2.9146,2.9149,2.9234,2.9248,2.9254,2.9254,2.9256,2.9255,2.9277,2.9268,2.9251,2.925,2.9249,2.9248,0,2.8781,2.8789,2.8883,2.8918,2.8929,2.8992,2.9022,2.9073,2.9083,2.9156,2.9172,2.9188,2.9251,2.9258,2.9332,2.9333,2.9436,2.9427,2.9423,2.9421,2.9486,2.948,2.9695,2.9723,2.9538,2.954,2.9542,0,2.8876,2.8936,2.8977,2.9013,2.9037,2.9096,2.9132,2.913,2.9169,2.9218,2.9264,2.9325,2.9374,2.9476,2.9494,2.955,2.9542,2.9613,2.955,2.955,2.9543,2.9539,2.9545,2.9626,2.9628,2.963,2.9631,0,2.9043,2.9044,2.9097,2.9152,2.9195,2.9238,2.9278,2.9309,2.9312,2.9357,2.9421,2.9459,2.9533,2.9594,2.9649,2.967,2.9652,2.9651,2.9669,2.9672,2.9667,2.967,2.9456,2.9646,2.9644,2.9643,2.9642,2.9642,2.9164,2.9215,2.9252,2.9312,2.9341,2.9379,2.9429,2.9445,2.9498,2.9559,2.9554,2.9625,2.9662,2.9734,2.9759,2.9814,2.979,2.9816,2.9823,2.983,2.9836,2.9658,2.9824,2.9824,2.9823,2.9823,2.9823,0,2.933,2.9352,2.9407,2.9463,2.951,2.9487,2.953,2.957,2.9633,2.9669,2.9717,2.979,2.9849,2.9871,2.9928,2.9968,2.996,2.9983,2.998,2.9985,2.9854,2.9833,2.9988,2.9988,2.9988,2.9988,2.9988,2.9988,2.9422,2.9508,2.9513,2.9613,2.9634,2.9704,2.973,2.9764,2.9793,2.9876,2.9924,2.9938,2.9968,3.0027,3.0079,3.0084,3.0106,3.0132,3.0134,3.0011,2.9994,2.9979,2.9958,3.0137,3.0137,3.026,3.0261,3.0262]}]]